Location: Mount Cross
(36.6390°N, 79.4878°W)
Time: 09:18:06
(UTC+00:00)

Tiros 1 - Pass Details

Date: 06 April 2023
Orbit: 627 x 661 km, 48.4° (Epoch: 02 June)

Event Time Altitude Azimuth Distance (km) Brightness Sun altitude
Exits shadow 08:25:03 20° 344° (NNW) 1,511 9.2 -29.1°
Maximum altitude 08:25:34 20° 353° (N) 1,496 9.2 -29.0°
Drops below altitude 10° 08:29:10 10° 42° (NE) 2,076 10.6 -28.4°
Sets 08:32:04 0° 59° (ENE) 2,990 11.8 -27.9°
